Olathe, KS

10:28 PM CST on December 04, 2016 (GMT -0600)
Johnson County Executive

Weather History for KOJC - October, 2013

Change the Weather History Date:

Friday, October 4, 2013

  Actual Average Record
Temperature  
Mean Temperature 74 °F 61 °F  
Max Temperature 86 °F 71 °F 89 °F (1963)
Min Temperature 61 °F 51 °F 34 °F (1987)
Degree Days  
Heating Degree Days 0 5  
Month to date heating degree days 0 20  
Since 1 July heating degree days 27 69  
Cooling Degree Days 9 2  
Month to date cooling degree days 30 8  
Year to date cooling degree days 1359 1329  
Growing Degree Days 25 (Base 50)    
Moisture  
Dew Point 66 °F    
Average Humidity 72    
Maximum Humidity 93    
Minimum Humidity 51    
Precipitation  
Precipitation 0.45 in 0.11 in 1.36 in (1998)
Month to date precipitation 0.45 0.53  
Year to date precipitation 29.95 33.00  
Sea Level Pressure  
Sea Level Pressure 29.81 in    
Wind  
Wind Speed 14 mph (South)    
Max Wind Speed 25 mph    
Max Gust Speed 35 mph    
Visibility 8 miles    
Events Rain , Thunderstorm    
T = Trace of Precipitation, MM = Missing Value Source: NWS Daily Summary

Daily Weather History Graph

Daily Weather History Graph

Search for Another Location

Airport or City:

Trip Planner

Search our weather history database for the weather conditions in past years. The results will help you decide how hot, cold, wet, or windy it might be!

Date:

Astronomy

Oct. 04, 2013 Rise Set
Actual Time 7:17 AM CDT 6:56 PM CDT
Civil Twilight 6:51 AM CDT 7:23 PM CDT
Nautical Twilight 6:20 AM CDT 7:53 PM CDT
Astronomical Twilight 5:49 AM CDT 8:24 PM CDT
Moon 6:54 AM CDT (10/4) 6:39 PM CDT (10/4)
Length of Visible Light 12h 31m
Length of Day
11h 38m
Waning Crescent, 0% of the Moon is Illuminated
Oct 4
Waning Crescent
Oct 4
New
Oct 11
First Quarter
Oct 18
Full
Oct 26
Last Quarter

Hourly Weather History & Observations

Time (CDT) Temp. Heat Index Dew Point Humidity Pressure Visibility Wind Dir Wind Speed Gust Speed Precip Events Conditions
12:53 AM 71.1 °F - 64.9 °F 81% 29.79 in 10.0 mi SSE 11.5 mph - N/A   Clear
1:53 AM 69.1 °F - 64.9 °F 87% 29.80 in 10.0 mi SSE 9.2 mph - N/A   Clear
2:53 AM 69.1 °F - 64.9 °F 87% 29.78 in 10.0 mi South 13.8 mph - N/A   Clear
3:53 AM 69.1 °F - 66.0 °F 90% 29.78 in 10.0 mi South 11.5 mph - N/A   Clear
4:53 AM 68.0 °F - 66.0 °F 93% 29.78 in 9.0 mi SSE 13.8 mph - N/A   Clear
5:44 AM 68.0 °F - 66.2 °F 94% 29.82 in 8.0 mi SSE 12.7 mph - N/A   Mostly Cloudy
5:53 AM 68.0 °F - 66.0 °F 93% 29.78 in 8.0 mi SSE 12.7 mph - N/A   Overcast
6:50 AM 68.0 °F - 66.2 °F 94% 29.82 in 8.0 mi SSE 11.5 mph - N/A   Scattered Clouds
6:53 AM 68.0 °F - 66.0 °F 93% 29.78 in 8.0 mi SSE 11.5 mph - N/A   Partly Cloudy
7:53 AM 70.0 °F - 66.9 °F 90% 29.79 in 8.0 mi South 13.8 mph - N/A   Partly Cloudy
8:02 AM 69.8 °F - 66.2 °F 88% 29.82 in 8.0 mi South 17.3 mph 23.0 mph N/A   Mostly Cloudy
8:53 AM 73.0 °F - 68.0 °F 84% 29.78 in 10.0 mi South 19.6 mph 31.1 mph 0.02 in   Mostly Cloudy
9:53 AM 75.9 °F - 68.0 °F 76% 29.79 in 10.0 mi South 16.1 mph 24.2 mph N/A   Mostly Cloudy
10:10 AM 75.2 °F - 68.0 °F 78% 29.82 in 10.0 mi South 16.1 mph 27.6 mph N/A   Scattered Clouds
10:53 AM 77.0 °F - 68.0 °F 74% 29.78 in 10.0 mi South 19.6 mph 31.1 mph N/A   Clear
11:53 AM 79.0 °F - 68.0 °F 69% 29.78 in 10.0 mi SSW 19.6 mph 26.5 mph N/A   Clear
12:53 PM 82.9 °F 86.5 °F 69.1 °F 63% 29.77 in 10.0 mi SSW 16.1 mph 28.8 mph N/A   Clear
1:53 PM 84.9 °F 88.2 °F 68.0 °F 57% 29.75 in 10.0 mi South 20.7 mph 31.1 mph N/A   Clear
2:53 PM 84.0 °F 85.8 °F 64.9 °F 53% 29.74 in 10.0 mi South 16.1 mph 34.5 mph N/A   Clear
3:53 PM 84.9 °F 86.6 °F 64.9 °F 51% 29.73 in 10.0 mi South 20.7 mph 29.9 mph N/A   Partly Cloudy
4:53 PM 84.0 °F 85.8 °F 64.9 °F 53% 29.72 in 10.0 mi South 19.6 mph 28.8 mph N/A   Clear
5:53 PM 82.9 °F 84.6 °F 64.9 °F 54% 29.73 in 10.0 mi South 18.4 mph 26.5 mph N/A   Clear
6:53 PM 79.0 °F - 64.9 °F 62% 29.77 in 10.0 mi South 11.5 mph - N/A   Clear
7:53 PM 77.0 °F - 64.9 °F 66% 29.78 in 10.0 mi South 9.2 mph - N/A   Clear
8:53 PM 78.1 °F - 66.0 °F 66% 29.80 in 10.0 mi South 12.7 mph 20.7 mph N/A   Partly Cloudy
9:38 PM 77.0 °F - 66.2 °F 69% 29.84 in 10.0 mi South 12.7 mph 20.7 mph N/A Thunderstorm Partly Cloudy
9:53 PM 73.0 °F - 63.0 °F 71% 29.84 in 10.0 mi West 8.1 mph 25.3 mph 0.00 in Rain , Thunderstorm Light Rain
10:21 PM 66.2 °F - 64.4 °F 94% 29.88 in 1.8 mi WSW 5.8 mph - 0.16 in Rain , Thunderstorm Heavy Thunderstorms and Rain
10:26 PM 66.2 °F - 66.2 °F 100% 29.88 in 1.0 mi SW 5.8 mph - 0.31 in Rain , Thunderstorm Heavy Thunderstorms and Rain
10:33 PM 68.0 °F - 66.2 °F 94% 29.88 in 1.5 mi Calm Calm - 0.31 in Rain , Thunderstorm Light Thunderstorms and Rain
10:35 PM 68.0 °F - 66.2 °F 94% 29.88 in 3.0 mi SE 3.5 mph - 0.31 in Rain , Thunderstorm Light Thunderstorms and Rain
10:53 PM 68.0 °F - 66.0 °F 93% 29.85 in 4.0 mi West 6.9 mph - 0.36 in Rain , Thunderstorm Thunderstorms and Rain
11:27 PM 66.2 °F - 64.4 °F 94% 29.90 in 8.0 mi West 6.9 mph - 0.03 in Rain , Thunderstorm Light Rain
11:48 PM 66.2 °F - 64.4 °F 94% 29.92 in 6.0 mi WSW 6.9 mph - 0.05 in Rain Light Rain
11:53 PM 66.0 °F - 63.0 °F 90% 29.88 in 5.0 mi West 5.8 mph - 0.06 in Rain Light Rain